Time,TemperatureF,DewpointF,PressureIn,WindDirection,WindDirectionDegrees,WindSpeedMPH,WindSpeedGustMPH,Humidity,HourlyPrecipIn,Conditions,Clouds,dailyrainin,SoftwareType,DateUTC
2013-06-24 00:03:00,74.5,70.7,30.13,SW,225,2.0,4.0,88,0.00,,,-99.99,WeatherLink 5.7,2013-06-24 04:03:00,
2013-06-24 00:13:00,74.5,70.7,30.13,SW,225,2.0,5.0,88,0.00,,,-99.99,WeatherLink 5.7,2013-06-24 04:13:00,
2013-06-24 00:23:00,74.3,70.8,30.12,SW,225,3.0,6.0,89,0.00,,,-99.99,WeatherLink 5.7,2013-06-24 04:23:00,
2013-06-24 00:33:00,74.3,71.2,30.12,SW,225,2.0,8.0,90,0.00,,,-99.99,WeatherLink 5.7,2013-06-24 04:33:00,
2013-06-24 00:43:00,74.3,71.2,30.12,SW,225,2.0,7.0,90,0.00,,,-99.99,WeatherLink 5.7,2013-06-24 04:43:00,
2013-06-24 00:53:00,74.2,71.1,30.12,SW,225,3.0,9.0,90,0.00,,,-99.99,WeatherLink 5.7,2013-06-24 04:53:00,
2013-06-24 01:03:00,74.3,71.5,30.12,WSW,247,1.0,6.0,91,0.00,,,-99.99,WeatherLink 5.7,2013-06-24 05:03:00,
2013-06-24 01:13:00,74.3,71.5,30.12,SW,225,4.0,10.0,91,0.00,,,-99.99,WeatherLink 5.7,2013-06-24 05:13:00,
2013-06-24 01:23:00,74.3,71.5,30.12,SW,225,4.0,7.0,91,0.00,,,-99.99,WeatherLink 5.7,2013-06-24 05:23:00,
2013-06-24 01:34:00,74.3,71.5,30.12,SW,225,4.0,8.0,91,0.00,,,-99.99,WeatherLink 5.7,2013-06-24 05:34:00,
2013-06-24 01:43:00,74.3,71.5,30.12,SW,225,3.0,9.0,91,0.00,,,-99.99,WeatherLink 5.7,2013-06-24 05:43:00,
2013-06-24 01:53:00,74.2,71.4,30.11,SW,225,2.0,9.0,91,0.00,,,-99.99,WeatherLink 5.7,2013-06-24 05:53:00,
2013-06-24 02:03:00,74.2,71.7,30.11,SW,225,3.0,7.0,92,0.00,,,-99.99,WeatherLink 5.7,2013-06-24 06:03:00,
2013-06-24 02:13:00,74.2,71.7,30.11,SW,225,3.0,7.0,92,0.00,,,-99.99,WeatherLink 5.7,2013-06-24 06:13:00,
2013-06-24 02:23:00,74.2,71.7,30.11,SW,225,3.0,6.0,92,0.00,,,-99.99,WeatherLink 5.7,2013-06-24 06:23:00,
2013-06-24 02:33:00,74.0,71.5,30.11,SW,225,2.0,7.0,92,0.00,,,-99.99,WeatherLink 5.7,2013-06-24 06:33:00,
2013-06-24 02:43:00,73.9,71.4,30.11,WSW,247,2.0,8.0,92,0.00,,,-99.99,WeatherLink 5.7,2013-06-24 06:43:00,
2013-06-24 02:53:00,73.9,71.4,30.10,SW,225,3.0,7.0,92,0.00,,,-99.99,WeatherLink 5.7,2013-06-24 06:53:00,
2013-06-24 03:03:00,74.0,71.2,30.11,SW,225,2.0,5.0,91,0.00,,,-99.99,WeatherLink 5.7,2013-06-24 07:03:00,
2013-06-24 03:13:00,73.9,71.1,30.10,SW,225,4.0,9.0,91,0.00,,,-99.99,WeatherLink 5.7,2013-06-24 07:13:00,
2013-06-24 03:24:00,73.8,71.3,30.10,SW,225,4.0,9.0,92,0.00,,,-99.99,WeatherLink 5.7,2013-06-24 07:24:00,
2013-06-24 03:33:00,73.9,71.1,30.10,SW,225,3.0,7.0,91,0.00,,,-99.99,WeatherLink 5.7,2013-06-24 07:33:00,
2013-06-24 03:44:00,73.9,71.1,30.10,SW,225,2.0,7.0,91,0.00,,,-99.99,WeatherLink 5.7,2013-06-24 07:44:00,
2013-06-24 03:53:00,74.0,70.9,30.10,SW,225,3.0,7.0,90,0.00,,,-99.99,WeatherLink 5.7,2013-06-24 07:53:00,
2013-06-24 04:03:00,73.9,70.8,30.10,SW,225,3.0,6.0,90,0.00,,,-99.99,WeatherLink 5.7,2013-06-24 08:03:00,
2013-06-24 04:13:00,73.9,70.8,30.09,SW,225,2.0,6.0,90,0.00,,,-99.99,WeatherLink 5.7,2013-06-24 08:13:00,
2013-06-24 04:23:00,73.8,70.7,30.10,SW,225,2.0,7.0,90,0.00,,,-99.99,WeatherLink 5.7,2013-06-24 08:23:00,
2013-06-24 04:33:00,73.8,71.0,30.10,SW,225,3.0,6.0,91,0.00,,,-99.99,WeatherLink 5.7,2013-06-24 08:33:00,
2013-06-24 04:44:00,73.6,70.8,30.10,SW,225,2.0,6.0,91,0.00,,,-99.99,WeatherLink 5.7,2013-06-24 08:44:00,
2013-06-24 04:53:00,73.6,70.8,30.09,SW,225,3.0,6.0,91,0.00,,,-99.99,WeatherLink 5.7,2013-06-24 08:53:00,
2013-06-24 05:03:00,73.4,70.6,30.10,SW,225,2.0,6.0,91,0.00,,,-99.99,WeatherLink 5.7,2013-06-24 09:03:00,
2013-06-24 05:13:00,73.3,70.5,30.10,SW,225,2.0,5.0,91,0.00,,,-99.99,WeatherLink 5.7,2013-06-24 09:13:00,
2013-06-24 05:23:00,73.4,70.9,30.10,SW,225,2.0,6.0,92,0.00,,,-99.99,WeatherLink 5.7,2013-06-24 09:23:00,
2013-06-24 05:30:00,73.5,70.7,30.10,SW,225,1.0,5.0,91,0.00,,,-99.99,WeatherLink 5.7,2013-06-24 09:30:00,
2013-06-24 05:40:00,73.6,70.8,30.09,SW,225,2.0,7.0,91,0.00,,,-99.99,WeatherLink 5.7,2013-06-24 09:40:00,
2013-06-24 05:54:00,73.4,70.3,30.09,SW,225,1.0,6.0,90,0.00,,,-99.99,WeatherLink 5.7,2013-06-24 09:54:00,
2013-06-24 06:03:00,73.5,70.4,30.09,SW,225,0.0,4.0,90,0.00,,,-99.99,WeatherLink 5.7,2013-06-24 10:03:00,
2013-06-24 06:14:00,73.5,70.4,30.10,SW,225,2.0,7.0,90,0.00,,,-99.99,WeatherLink 5.7,2013-06-24 10:14:00,
2013-06-24 06:23:00,73.6,70.2,30.10,SW,225,2.0,5.0,89,0.00,,,-99.99,WeatherLink 5.7,2013-06-24 10:23:00,
2013-06-24 06:34:00,73.8,70.4,30.10,SW,225,1.0,4.0,89,0.00,,,-99.99,WeatherLink 5.7,2013-06-24 10:34:00,
2013-06-24 06:43:00,74.0,70.2,30.10,SW,225,1.0,4.0,88,0.00,,,-99.99,WeatherLink 5.7,2013-06-24 10:43:00,
2013-06-24 06:53:00,74.0,69.9,30.10,SW,225,1.0,4.0,87,0.00,,,-99.99,WeatherLink 5.7,2013-06-24 10:53:00,
2013-06-24 07:03:00,74.2,70.1,30.10,SW,225,1.0,5.0,87,0.00,,,-99.99,WeatherLink 5.7,2013-06-24 11:03:00,
2013-06-24 07:13:00,74.5,70.7,30.10,SW,225,3.0,7.0,88,0.00,,,-99.99,WeatherLink 5.7,2013-06-24 11:13:00,
2013-06-24 07:23:00,74.6,70.8,30.10,SW,225,3.0,7.0,88,0.00,,,-99.99,WeatherLink 5.7,2013-06-24 11:23:00,
2013-06-24 07:33:00,75.0,70.9,30.10,SW,225,3.0,8.0,87,0.00,,,-99.99,WeatherLink 5.7,2013-06-24 11:33:00,
2013-06-24 07:43:00,75.2,70.7,30.09,SW,225,3.0,11.0,86,0.00,,,-99.99,WeatherLink 5.7,2013-06-24 11:43:00,
2013-06-24 07:53:00,75.6,71.1,30.10,SW,225,4.0,8.0,86,0.00,,,-99.99,WeatherLink 5.7,2013-06-24 11:53:00,
2013-06-24 08:03:00,76.0,71.2,30.10,SW,225,4.0,8.0,85,0.00,,,-99.99,WeatherLink 5.7,2013-06-24 12:03:00,
2013-06-24 08:13:00,76.3,71.1,30.10,SW,225,4.0,8.0,84,0.00,,,-99.99,WeatherLink 5.7,2013-06-24 12:13:00,
2013-06-24 08:23:00,76.7,70.8,30.10,WSW,247,4.0,7.0,82,0.00,,,-99.99,WeatherLink 5.7,2013-06-24 12:23:00,
2013-06-24 08:33:00,77.3,71.0,30.10,WSW,247,3.0,7.0,81,0.00,,,-99.99,WeatherLink 5.7,2013-06-24 12:33:00,
2013-06-24 08:43:00,78.1,70.7,30.10,WSW,247,4.0,9.0,78,0.00,,,-99.99,WeatherLink 5.7,2013-06-24 12:43:00,
2013-06-24 08:53:00,78.5,70.7,30.10,WSW,247,2.0,6.0,77,0.00,,,-99.99,WeatherLink 5.7,2013-06-24 12:53:00,
2013-06-24 09:03:00,79.1,70.1,30.10,WSW,247,4.0,7.0,74,0.00,,,-99.99,WeatherLink 5.7,2013-06-24 13:03:00,
2013-06-24 09:13:00,80.0,68.9,30.10,WSW,247,5.0,8.0,69,0.00,,,-99.99,WeatherLink 5.7,2013-06-24 13:13:00,
2013-06-24 09:23:00,80.7,68.7,30.10,WSW,247,3.0,9.0,67,0.00,,,-99.99,WeatherLink 5.7,2013-06-24 13:23:00,
2013-06-24 09:33:00,81.2,69.2,30.09,West,270,3.0,8.0,67,0.00,,,-99.99,WeatherLink 5.7,2013-06-24 13:33:00,
2013-06-24 09:43:00,81.9,69.9,30.09,West,270,2.0,6.0,67,0.00,,,-99.99,WeatherLink 5.7,2013-06-24 13:43:00,
2013-06-24 09:53:00,82.6,68.3,30.09,WSW,247,3.0,9.0,62,0.00,,,-99.99,WeatherLink 5.7,2013-06-24 13:53:00,
2013-06-24 10:03:00,83.3,68.9,30.09,WSW,247,4.0,9.0,62,0.00,,,-99.99,WeatherLink 5.7,2013-06-24 14:03:00,
2013-06-24 10:13:00,83.7,68.3,30.09,West,270,3.0,9.0,60,0.00,,,-99.99,WeatherLink 5.7,2013-06-24 14:13:00,
2013-06-24 10:23:00,84.2,68.8,30.09,WSW,247,3.0,7.0,60,0.00,,,-99.99,WeatherLink 5.7,2013-06-24 14:23:00,
2013-06-24 10:33:00,84.8,67.9,30.09,West,270,4.0,9.0,57,0.00,,,-99.99,WeatherLink 5.7,2013-06-24 14:33:00,
2013-06-24 10:43:00,85.0,68.6,30.08,WSW,247,3.0,7.0,58,0.00,,,-99.99,WeatherLink 5.7,2013-06-24 14:43:00,
2013-06-24 10:53:00,85.7,67.7,30.08,WSW,247,4.0,9.0,55,0.00,,,-99.99,WeatherLink 5.7,2013-06-24 14:53:00,
2013-06-24 11:03:00,86.0,68.0,30.08,WNW,292,3.0,8.0,55,0.00,,,-99.99,WeatherLink 5.7,2013-06-24 15:03:00,
2013-06-24 11:13:00,86.5,67.9,30.08,West,270,4.0,8.0,54,0.00,,,-99.99,WeatherLink 5.7,2013-06-24 15:13:00,
2013-06-24 11:23:00,86.9,67.2,30.08,West,270,4.0,11.0,52,0.00,,,-99.99,WeatherLink 5.7,2013-06-24 15:23:00,
2013-06-24 11:33:00,87.6,67.2,30.08,West,270,4.0,10.0,51,0.00,,,-99.99,WeatherLink 5.7,2013-06-24 15:33:00,
2013-06-24 11:43:00,88.1,67.7,30.08,West,270,4.0,9.0,51,0.00,,,-99.99,WeatherLink 5.7,2013-06-24 15:43:00,
2013-06-24 11:53:00,88.4,67.4,30.08,WSW,247,4.0,9.0,50,0.00,,,-99.99,WeatherLink 5.7,2013-06-24 15:53:00,
2013-06-24 12:03:00,88.6,67.6,30.08,WSW,247,5.0,10.0,50,0.00,,,-99.99,WeatherLink 5.7,2013-06-24 16:03:00,
2013-06-24 12:13:00,89.0,65.5,30.08,WNW,292,5.0,10.0,46,0.00,,,-99.99,WeatherLink 5.7,2013-06-24 16:13:00,
2013-06-24 12:23:00,89.3,65.8,30.08,WNW,292,4.0,11.0,46,0.00,,,-99.99,WeatherLink 5.7,2013-06-24 16:23:00,
2013-06-24 12:33:00,90.0,63.1,30.07,WNW,292,5.0,12.0,41,0.00,,,-99.99,WeatherLink 5.7,2013-06-24 16:33:00,
2013-06-24 12:43:00,90.3,65.4,30.07,WSW,247,5.0,10.0,44,0.00,,,-99.99,WeatherLink 5.7,2013-06-24 16:43:00,
2013-06-24 12:53:00,90.4,64.9,30.07,WSW,247,6.0,15.0,43,0.00,,,-99.99,WeatherLink 5.7,2013-06-24 16:53:00,
2013-06-24 13:03:00,90.4,62.8,30.07,West,270,5.0,11.0,40,0.00,,,-99.99,WeatherLink 5.7,2013-06-24 17:03:00,
2013-06-24 13:13:00,90.7,63.1,30.07,West,270,7.0,15.0,40,0.00,,,-99.99,WeatherLink 5.7,2013-06-24 17:13:00,
2013-06-24 13:23:00,90.7,63.8,30.07,WSW,247,7.0,15.0,41,0.00,,,-99.99,WeatherLink 5.7,2013-06-24 17:23:00,
2013-06-24 13:33:00,90.7,62.3,30.06,West,270,7.0,15.0,39,0.00,,,-99.99,WeatherLink 5.7,2013-06-24 17:33:00,
2013-06-24 13:43:00,90.9,62.5,30.06,SW,225,5.0,17.0,39,0.00,,,-99.99,WeatherLink 5.7,2013-06-24 17:43:00,
2013-06-24 13:53:00,91.1,62.7,30.05,WSW,247,7.0,19.0,39,0.00,,,-99.99,WeatherLink 5.7,2013-06-24 17:53:00,
2013-06-24 14:03:00,90.9,61.0,30.05,SW,225,6.0,12.0,37,0.00,,,-99.99,WeatherLink 5.7,2013-06-24 18:03:00,
2013-06-24 14:13:00,90.9,60.3,30.04,WSW,247,6.0,13.0,36,0.00,,,-99.99,WeatherLink 5.7,2013-06-24 18:13:00,
2013-06-24 14:24:00,91.3,60.6,30.03,SW,225,4.0,12.0,36,0.00,,,-99.99,WeatherLink 5.7,2013-06-24 18:24:00,
2013-06-24 14:34:00,91.5,60.0,30.03,WSW,247,7.0,15.0,35,0.00,,,-99.99,WeatherLink 5.7,2013-06-24 18:34:00,
2013-06-24 14:44:00,91.3,60.6,30.02,SW,225,7.0,17.0,36,0.00,,,-99.99,WeatherLink 5.7,2013-06-24 18:44:00,
2013-06-24 14:53:00,91.1,60.4,30.01,WSW,247,8.0,16.0,36,0.00,,,-99.99,WeatherLink 5.7,2013-06-24 18:53:00,
2013-06-24 15:03:00,91.2,60.5,30.01,West,270,7.0,13.0,36,0.00,,,-99.99,WeatherLink 5.7,2013-06-24 19:03:00,
2013-06-24 15:13:00,91.6,58.4,30.02,West,270,7.0,19.0,33,0.00,,,-99.99,WeatherLink 5.7,2013-06-24 19:13:00,
2013-06-24 15:23:00,91.5,58.3,30.01,West,270,7.0,17.0,33,0.00,,,-99.99,WeatherLink 5.7,2013-06-24 19:23:00,
2013-06-24 15:34:00,90.9,61.0,30.01,West,270,7.0,15.0,37,0.00,,,-99.99,WeatherLink 5.7,2013-06-24 19:34:00,
2013-06-24 15:43:00,90.4,61.3,30.01,WSW,247,4.0,8.0,38,0.00,,,-99.99,WeatherLink 5.7,2013-06-24 19:43:00,
2013-06-24 15:53:00,90.0,60.2,30.02,West,270,7.0,16.0,37,0.00,,,-99.99,WeatherLink 5.7,2013-06-24 19:53:00,
2013-06-24 16:03:00,89.4,61.2,30.01,WSW,247,6.0,13.0,39,0.00,,,-99.99,WeatherLink 5.7,2013-06-24 20:03:00,
2013-06-24 16:13:00,88.9,61.5,30.02,WSW,247,5.0,10.0,40,0.00,,,-99.99,WeatherLink 5.7,2013-06-24 20:13:00,
2013-06-24 16:23:00,88.7,62.0,30.02,WSW,247,4.0,12.0,41,0.00,,,-99.99,WeatherLink 5.7,2013-06-24 20:23:00,
2013-06-24 16:33:00,88.2,62.2,30.00,WSW,247,4.0,12.0,42,0.00,,,-99.99,WeatherLink 5.7,2013-06-24 20:33:00,
2013-06-24 16:43:00,87.9,62.6,30.00,SW,225,4.0,11.0,43,0.00,,,-99.99,WeatherLink 5.7,2013-06-24 20:43:00,
2013-06-24 16:53:00,87.6,63.0,30.00,SW,225,4.0,14.0,44,0.00,,,-99.99,WeatherLink 5.7,2013-06-24 20:53:00,
2013-06-24 17:03:00,86.7,65.8,30.00,SW,225,5.0,16.0,50,0.00,,,-99.99,WeatherLink 5.7,2013-06-24 21:03:00,
2013-06-24 17:13:00,84.7,65.1,30.00,SW,225,5.0,16.0,52,0.00,,,-99.99,WeatherLink 5.7,2013-06-24 21:13:00,
2013-06-24 17:23:00,84.2,64.1,29.99,SW,225,3.0,13.0,51,0.00,,,-99.99,WeatherLink 5.7,2013-06-24 21:23:00,
2013-06-24 17:34:00,84.5,64.4,29.99,SW,225,5.0,15.0,51,0.00,,,-99.99,WeatherLink 5.7,2013-06-24 21:34:00,
2013-06-24 17:43:00,84.6,63.9,29.99,South,180,4.0,15.0,50,0.00,,,-99.99,WeatherLink 5.7,2013-06-24 21:43:00,
2013-06-24 17:50:00,84.4,63.7,30.00,SW,225,4.0,12.0,50,0.00,,,-99.99,WeatherLink 5.7,2013-06-24 21:50:00,
2013-06-24 18:03:00,84.7,65.1,30.01,SW,225,4.0,11.0,52,0.00,,,-99.99,WeatherLink 5.7,2013-06-24 22:03:00,
2013-06-24 18:13:00,84.7,66.2,30.01,SW,225,6.0,16.0,54,0.00,,,-99.99,WeatherLink 5.7,2013-06-24 22:13:00,
2013-06-24 18:23:00,84.6,66.1,30.01,SW,225,7.0,14.0,54,0.00,,,-99.99,WeatherLink 5.7,2013-06-24 22:23:00,
2013-06-24 18:33:00,84.2,65.8,30.01,SW,225,5.0,14.0,54,0.00,,,-99.99,WeatherLink 5.7,2013-06-24 22:33:00,
2013-06-24 18:43:00,84.0,65.6,30.01,SW,225,4.0,14.0,54,0.00,,,-99.99,WeatherLink 5.7,2013-06-24 22:43:00,
2013-06-24 18:53:00,83.7,65.3,30.02,SW,225,7.0,15.0,54,0.00,,,-99.99,WeatherLink 5.7,2013-06-24 22:53:00,
2013-06-24 19:03:00,83.3,66.0,30.01,SW,225,8.0,17.0,56,0.00,,,-99.99,WeatherLink 5.7,2013-06-24 23:03:00,
2013-06-24 19:14:00,83.0,64.6,30.00,SW,225,7.0,21.0,54,0.00,,,-99.99,WeatherLink 5.7,2013-06-24 23:14:00,
2013-06-24 19:24:00,83.0,63.6,30.00,WSW,247,6.0,13.0,52,0.00,,,-99.99,WeatherLink 5.7,2013-06-24 23:24:00,
2013-06-24 19:33:00,83.1,61.4,30.01,West,270,7.0,17.0,48,0.00,,,-99.99,WeatherLink 5.7,2013-06-24 23:33:00,
2013-06-24 19:44:00,82.8,59.9,30.01,West,270,9.0,17.0,46,0.00,,,-99.99,WeatherLink 5.7,2013-06-24 23:44:00,
2013-06-24 19:53:00,81.4,57.4,30.01,West,270,6.0,18.0,44,0.00,,,-99.99,WeatherLink 5.7,2013-06-24 23:53:00,
2013-06-24 20:03:00,80.3,57.0,30.01,NW,315,5.0,11.0,45,0.00,,,-99.99,WeatherLink 5.7,2013-06-25 00:03:00,
2013-06-24 20:13:00,79.5,56.9,30.02,NW,315,2.0,7.0,46,0.00,,,-99.99,WeatherLink 5.7,2013-06-25 00:13:00,
2013-06-24 20:23:00,79.2,57.8,30.01,NW,315,2.0,6.0,48,0.00,,,-99.99,WeatherLink 5.7,2013-06-25 00:23:00,
2013-06-24 20:33:00,78.9,58.7,30.02,NW,315,2.0,5.0,50,0.00,,,-99.99,WeatherLink 5.7,2013-06-25 00:33:00,
2013-06-24 20:43:00,78.4,58.2,30.03,WNW,292,3.0,8.0,50,0.00,,,-99.99,WeatherLink 5.7,2013-06-25 00:43:00,
2013-06-24 20:53:00,78.0,57.9,30.03,WSW,247,3.0,7.0,50,0.00,,,-99.99,WeatherLink 5.7,2013-06-25 00:53:00,
2013-06-24 21:03:00,77.8,57.7,30.03,WSW,247,0.0,3.0,50,0.00,,,-99.99,WeatherLink 5.7,2013-06-25 01:03:00,
2013-06-24 21:13:00,77.6,57.5,30.03,WSW,247,1.0,3.0,50,0.00,,,-99.99,WeatherLink 5.7,2013-06-25 01:13:00,
2013-06-24 21:23:00,77.6,58.0,30.04,WSW,247,1.0,4.0,51,0.00,,,-99.99,WeatherLink 5.7,2013-06-25 01:23:00,
2013-06-24 21:33:00,77.3,58.3,30.04,WSW,247,1.0,3.0,52,0.00,,,-99.99,WeatherLink 5.7,2013-06-25 01:33:00,
2013-06-24 21:44:00,76.9,58.5,30.05,WSW,247,2.0,4.0,53,0.00,,,-99.99,WeatherLink 5.7,2013-06-25 01:44:00,
2013-06-24 21:53:00,76.6,58.7,30.05,WSW,247,1.0,4.0,54,0.00,,,-99.99,WeatherLink 5.7,2013-06-25 01:53:00,
2013-06-24 22:03:00,76.5,59.1,30.05,WSW,247,1.0,5.0,55,0.00,,,-99.99,WeatherLink 5.7,2013-06-25 02:03:00,
2013-06-24 22:13:00,76.6,58.7,30.05,WSW,247,2.0,5.0,54,0.00,,,-99.99,WeatherLink 5.7,2013-06-25 02:13:00,
2013-06-24 22:23:00,76.6,59.2,30.05,WSW,247,2.0,4.0,55,0.00,,,-99.99,WeatherLink 5.7,2013-06-25 02:23:00,
2013-06-24 22:30:00,76.5,60.6,30.05,WSW,247,2.0,5.0,58,0.00,,,-99.99,WeatherLink 5.7,2013-06-25 02:30:00,
2013-06-24 22:43:00,76.3,59.4,30.05,WSW,247,2.0,4.0,56,0.00,,,-99.99,WeatherLink 5.7,2013-06-25 02:43:00,
2013-06-24 22:53:00,76.1,59.3,30.04,WSW,247,1.0,3.0,56,0.00,,,-99.99,WeatherLink 5.7,2013-06-25 02:53:00,
2013-06-24 23:03:00,75.9,59.6,30.04,WSW,247,0.0,4.0,57,0.00,,,-99.99,WeatherLink 5.7,2013-06-25 03:03:00,
2013-06-24 23:13:00,75.8,59.5,30.05,WSW,247,2.0,5.0,57,0.00,,,-99.99,WeatherLink 5.7,2013-06-25 03:13:00,
2013-06-24 23:23:00,76.1,59.8,30.05,WSW,247,2.0,3.0,57,0.00,,,-99.99,WeatherLink 5.7,2013-06-25 03:23:00,
2013-06-24 23:34:00,76.1,60.2,30.05,WSW,247,1.0,4.0,58,0.00,,,-99.99,WeatherLink 5.7,2013-06-25 03:34:00,
2013-06-24 23:43:00,75.9,60.5,30.04,WSW,247,1.0,4.0,59,0.00,,,-99.99,WeatherLink 5.7,2013-06-25 03:43:00,
2013-06-24 23:53:00,75.8,61.4,30.04,WSW,247,2.0,5.0,61,0.00,,,-99.99,WeatherLink 5.7,2013-06-25 03:53:00,